Weather History for Hurlburt Field, FL

Change the Weather History Date:

Monday, September 16, 2013

  Actual Average Record
Temperature  
Mean Temperature 81 °F -  
Max Temperature 89 °F 85 °F 93 °F (1997)
Min Temperature 73 °F 68 °F 59 °F (1999)
Cooling Degree Days 16    
Growing Degree Days 31 (Base 50)    
Moisture  
Dew Point 72 °F    
Average Humidity 76    
Maximum Humidity 90    
Minimum Humidity 59    
Precipitation  
Precipitation 0.00 in - - ()
Sea Level Pressure  
Sea Level Pressure 30.05 in    
Wind  
Wind Speed 5 mph (NNE)    
Max Wind Speed 12 mph    
Max Gust Speed -    
Visibility 10 miles    
Events Rain , Thunderstorm    
Averages and records for this station are not official NWS values.
T = Trace of Precipitation, MM = Missing Value Source: NWS Daily Summary

Daily Weather History Graph

Daily Weather History Graph

Search for Another Location

Airport:

Trip Planner

Search our weather history database for the weather conditions in past years. The results will help you decide how hot, cold, wet, or windy it might be!

Date:

Astronomy

Sep. 16, 2013 Rise Set
Actual Time 6:31 AM CDT 6:50 PM CDT
Civil Twilight 6:07 AM CDT 7:14 PM CDT
Nautical Twilight 5:39 AM CDT 7:42 PM CDT
Astronomical Twilight 5:11 AM CDT 8:11 PM CDT
Moon 4:51 PM CDT (9/16) 3:27 AM CDT (9/16)
Length of Visible Light 13h 06m
Length of Day
12h 18m
Waxing Gibbous, 90% of the Moon is Illuminated
Sep 16
Waxing Gibbous
Sep 19
Full
Sep 26
Last Quarter
Oct 4
New
Oct 11
First Quarter

Hourly Weather History & Observations

Time (CDT) Temp. Heat Index Dew Point Humidity Pressure Visibility Wind Dir Wind Speed Gust Speed Precip Events Conditions
12:48 AM 77.0 °F - 71.6 °F 83% 30.06 in 10.0 mi Calm Calm - N/A   Mostly Cloudy
12:58 AM 77.0 °F - 71.6 °F 83% 30.06 in 10.0 mi Calm Calm - N/A   Scattered Clouds
1:58 AM 74.8 °F - 71.1 °F 88% 30.05 in 10.0 mi North 3.5 mph - N/A   Clear
2:58 AM 73.6 °F - 70.2 °F 89% 30.04 in 10.0 mi North 2.3 mph - N/A   Clear
3:58 AM 74.3 °F - 70.9 °F 89% 30.04 in 10.0 mi Variable 4.6 mph - N/A   Clear
4:58 AM 75.2 °F - 71.2 °F 87% 30.04 in 10.0 mi NNW 5.8 mph - N/A   Partly Cloudy
5:58 AM 74.1 °F - 70.9 °F 90% 30.05 in 10.0 mi North 6.9 mph - N/A   Clear
6:58 AM 74.7 °F - 71.2 °F 89% 30.05 in 10.0 mi NE 4.6 mph - N/A   Clear
7:58 AM 79.3 °F - 72.3 °F 79% 30.06 in 10.0 mi East 5.8 mph - N/A   Clear
8:58 AM 82.9 °F 88.5 °F 72.9 °F 71% 30.08 in 10.0 mi NNE 6.9 mph - N/A   Clear
9:02 AM 84.2 °F 90.9 °F 73.4 °F 70% 30.07 in 10.0 mi NNE 5.8 mph - N/A   Light Drizzle
9:11 AM 84.2 °F 90.9 °F 73.4 °F 70% 30.07 in 10.0 mi NE 5.8 mph - N/A   Clear
9:58 AM 87.3 °F 94.9 °F 73.2 °F 63% 30.09 in 10.0 mi ENE 5.8 mph - 0.00 in   Clear
10:22 AM 89.6 °F 98.2 °F 73.4 °F 59% 30.08 in 10.0 mi SE 11.5 mph - N/A   Light Drizzle
10:31 AM 87.8 °F 97.6 °F 75.2 °F 66% 30.08 in 10.0 mi SE 10.4 mph - N/A   Clear
10:58 AM 86.9 °F 95.9 °F 74.8 °F 67% 30.09 in 10.0 mi SE 11.5 mph - 0.00 in   Partly Cloudy
11:58 AM 86.5 °F 95.5 °F 75.0 °F 68% 30.08 in 10.0 mi SSE 11.5 mph - N/A   Clear
12:58 PM 88.3 °F 96.4 °F 73.4 °F 61% 30.06 in 10.0 mi South 11.5 mph - N/A   Partly Cloudy
1:58 PM 85.5 °F 91.8 °F 72.5 °F 65% 30.06 in 10.0 mi SSW 8.1 mph - N/A   Partly Cloudy
2:58 PM 86.4 °F 92.6 °F 71.8 °F 62% 30.02 in 10.0 mi Variable 3.5 mph - N/A   Partly Cloudy
3:58 PM 85.8 °F 91.8 °F 71.8 °F 63% 30.02 in 10.0 mi SSW 5.8 mph - N/A   Partly Cloudy
4:58 PM 86.5 °F 92.1 °F 71.2 °F 60% 30.01 in 10.0 mi South 6.9 mph - N/A   Clear
5:58 PM 85.6 °F 91.5 °F 71.6 °F 63% 30.01 in 10.0 mi South 6.9 mph - N/A   Clear
6:30 PM 84.2 °F 89.6 °F 71.6 °F 66% 30.02 in 10.0 mi NNE 8.1 mph - N/A   Light Drizzle
6:40 PM 84.2 °F 89.6 °F 71.6 °F 66% 30.02 in 10.0 mi NNE 10.4 mph - N/A Thunderstorm Light Drizzle
6:42 PM 84.2 °F 89.6 °F 71.6 °F 66% 30.02 in 10.0 mi NNE 11.5 mph - N/A Thunderstorm Mostly Cloudy
6:58 PM 80.4 °F 83.9 °F 70.5 °F 72% 30.03 in 10.0 mi NNE 10.4 mph - 0.00 in Thunderstorm Mostly Cloudy
7:10 PM 78.8 °F - 71.6 °F 78% 30.03 in 9.0 mi NNW 5.8 mph - N/A Thunderstorm Light Drizzle
7:31 PM 77.0 °F - 73.4 °F 89% 30.03 in 10.0 mi North 6.9 mph - N/A Rain , Thunderstorm Light Thunderstorms and Rain
7:46 PM 77.0 °F - 73.4 °F 89% 30.03 in 10.0 mi NW 5.8 mph - N/A Thunderstorm Light Drizzle
7:47 PM 77.0 °F - 73.4 °F 89% 30.03 in 10.0 mi NW 5.8 mph - N/A Thunderstorm Scattered Clouds
7:58 PM 77.9 °F - 72.5 °F 83% 30.05 in 10.0 mi NW 6.9 mph - 0.00 in Thunderstorm Mostly Cloudy
8:58 PM 75.9 °F - 70.9 °F 84% 30.06 in 10.0 mi NNE 4.6 mph - N/A   Overcast
9:58 PM 75.7 °F - 69.8 °F 82% 30.05 in 10.0 mi NNE 3.5 mph - N/A   Overcast
10:58 PM 74.5 °F - 70.5 °F 87% 30.05 in 10.0 mi North 11.5 mph - N/A   Overcast
11:58 PM 74.5 °F - 70.9 °F 88% 30.05 in 10.0 mi North 5.8 mph - N/A   Overcast